OneWeb SL0415

operational
NORAD ID: 51624 Int'l Des: 2022-012 Owner: ONEWEBN Country: UK Constellation: oneweb
LEOCIRCULARPOLARONEWEB_TYPE

About OneWeb SL0415

Description loading...

Live Position

Loading 3D Globe...

Upcoming Passes

Altitude History

Altitude vs Time

uPlot chart will show altitude changes over time

Two-Line Element Set

1 51624U 22012C 25260.94789451 -.00000615 00000-0 -17972-2 0 9999
2 51624 87.8736 90.5584 0001635 97.8867 262.2445 13.10373621173632
Epoch: Sep 17, 2025 • Age: 7 hours

Current Status

Altitude 1251.5 km
Velocity 7.23 km/s
Sub-Earth Point -84.01°S, 150.16°W
Launch Date Feb 10, 2022
Age 3.6 years
Type internet

Technical Details

Classification Payload
Mass 148.00 kg
Dry Mass 140.00 kg
Total Mass 148.00 kg
Length 1.30 m
Diameter 1.00 m
Span 5.00 m
Shape Trapezoid+2 pan
Manufacturer ONEWUS
Bus Type ARROW
Phase Status In Orbit
Owner/State ONEWEBN/UK

Large Constellations

Loading constellations...